Overview Statistics Trail Chart Weather Telemetry Raw packets
 

This is the latest recevied weather packets stored in our database for station/object KQ7A. If no packets are shown the sender has not sent any weather packets the latest 10 day(s).

<< 9 10 11 12 13 14 15 >>
Time Temp. Humidity Pressure Rain* Wind** Luminosity Snow
1788616495 7.22° C 79% 1017.9 hPa 0 mm - 18 W/m² -
1788616191 7.22° C 76% 1017.8 hPa 0 mm - 13 W/m² -
1788615889 7.22° C 76% 1018.1 hPa 0 mm - 10 W/m² -
1788615589 7.22° C 74% 1017.9 hPa 0 mm - 8 W/m² -
1788615284 7.78° C 74% 1017.8 hPa 0 mm - 5 W/m² -
1788614978 7.78° C 73% 1017.5 hPa 0 mm - 1 W/m² -
1788614673 7.22° C 74% 1017.6 hPa 0 mm - 0 W/m² -
1788614367 7.78° C 73% 1017.4 hPa 0 mm - 0 W/m² -
1788614078 7.22° C 75% 1018.1 hPa 0 mm - 0 W/m² -
1788613758 7.22° C 76% 1017.7 hPa 0 mm - 0 W/m² -
1788613457 7.22° C 74% 1017.5 hPa 0 mm - 0 W/m² -
1788613152 7.78° C 74% 1017.5 hPa 0 mm - 0 W/m² -
1788612847 7.22° C 75% 1017.6 hPa 0 mm - 0 W/m² -
1788612543 7.78° C 73% 1017.6 hPa 0 mm - 0 W/m² -
1788612239 7.78° C 72% 1017.3 hPa 0 mm - 0 W/m² -
1788611939 7.78° C 72% 1017.5 hPa 0 mm - 0 W/m² -
1788611636 8.33° C 72% 1017.4 hPa 0 mm - 0 W/m² -
1788611331 8.89° C 68% 1017.4 hPa 0 mm - 0 W/m² -
1788611030 8.89° C 68% 1017.5 hPa 0 mm - 0 W/m² -
1788610725 8.89° C 67% 1017.5 hPa 0 mm - 0 W/m² -
1788610422 7.78° C 70% 1017.7 hPa 0 mm - 0 W/m² -
1788610120 7.78° C 69% 1017.5 hPa 0 mm - 0 W/m² -
1788609814 8.89° C 68% 1017.7 hPa 0 mm - 0 W/m² -
1788609510 7.78° C 70% 1017.5 hPa 0 mm - 0 W/m² -
1788609209 8.33° C 69% 1017.4 hPa 0 mm - 0 W/m² -

* Rain latest hour (hover to see other rain measurements)
** Current wind speed in m/s (hover to see current wind gust speed)